Regional Weather Roundup
Issued by NWS Green Bay, WI

Home | Current Version | Previous Version | Graphics & Text | Print | Product List | Glossary Off
Versions: 1 2 3 4 5 6 7 8 9 10 11 12 13 14 15 16 17 18 19 20 21 22 23 24 25 26 27 28 29 30 31 32 33 34 35 36 37 38 39 40 41 42 43 44 45 46 47 48 49 50

000
ASUS43 KGRB 280311
RWRGRB

NORTH-CENTRAL AND NORTHEAST WISCONSIN REGIONAL WEATHER ROUNDUP
NATIONAL WEATHER SERVICE GREEN BAY WI
1000 PM CDT MON MAR 27 2017

WIZ005-009-010>012-018-019-280400-
NORTH CENTRAL WISCONSIN

CITY           SKY/WX    TMP DP  RH WIND       PRES   REMARKS
IRONWOOD       CLEAR     29  27  92 SW3       30.03R
MANITOWISH WTR CLEAR     36  32  83 CALM      30.01R
ARBOR VITAE    CLEAR     34  31  87 N3        30.00R
EAGLE RIVER    CLOUDY    30  30  99 CALM      30.00R
LAND O LAKES   CLOUDY    35  31  87 CALM      30.02R
RHINELANDER    CLEAR     32  29  88 CALM      30.00R
PHILLIPS       CLEAR     30  29  94 CALM      30.00R
ANTIGO         PTCLDY    33  33 100 CALM      29.99R
TOMAHAWK       CLEAR     28  27  96 CALM      30.00R
MERRILL        FOG       31  31 100 CALM      30.00R VSB 3/4
$$

WIZ013-073-280400-
NORTHEAST WISCONSIN

CITY           SKY/WX    TMP DP  RH WIND       PRES   REMARKS
IRON MOUNTAIN  PTCLDY    33  31  92 CALM      29.99R
MARINETTE        N/A    N/A N/A N/A MISG        N/A
OCONTO         CLOUDY    37  34  89 CALM      30.01S
$$

WIZ017-030-035>037-045-280400-
CENTRAL WISCONSIN

CITY           SKY/WX    TMP DP  RH WIND       PRES   REMARKS
MEDFORD        FOG       33  33  99 CALM      29.99R VSB 1/4
WAUSAU         CLEAR     36  34  92 CALM      29.98R
MOSINEE        CLEAR     37  36  93 CALM      30.00R
MARSHFIELD     PTCLDY    39  36  89 CALM      29.98R
WISC RAPIDS    CLOUDY    41  40  96 CALM      30.01R
STEVENS POINT  MOCLDY    37  37 100 CALM      30.00R
WAUPACA        CLOUDY    42  41  96 CALM      30.01S FOG
SHAWANO        CLOUDY    41  38  87 CALM      30.01R
CLINTONVILLE   CLOUDY    39  37  93 CALM      30.00S
WAUTOMA        CLOUDY    42  41  96 E5        30.01R
$$

WIZ038-039-048-051-280400-
FOX VALLEY

CITY           SKY/WX    TMP DP  RH WIND       PRES   REMARKS
NWS GREEN BAY  CLOUDY    40  38  93 W3        30.01R
APPLETON       CLOUDY    39  37  93 CALM      29.99R
OSHKOSH        CLOUDY    41  37  86 NE5       30.00R
FOND DU LAC    CLOUDY    42  37  82 NE5       30.00R
$$

WIZ022-050-052-280400-
EAST CENTRAL WISCONSIN

CITY           SKY/WX    TMP DP  RH WIND       PRES   REMARKS
EPHRAIM        CLOUDY    37  37 100 CALM      30.00R
WASHINGTON ISL CLOUDY    35  34  96 CALM      30.01R
STURGEON BAY   CLOUDY    38  36  92 CALM      29.98S
MANITOWOC      CLOUDY    38  34  85 CALM      30.01R
SHEBOYGAN      CLOUDY    37  34  89 N3        30.00R
$$

LMZ563-521-522-541>543-280400-
LAKESHORE

STATION/POSITION TIME  TEMP    WIND        PRES    VSBY  WAVE
                       AIR SEA DIR/SP/G                  HT/PER
                 (UTC) (F)     (DEG/KT/KT) (MB)    (MI)  (FT/S)
SHEBOYGAN LKSHOR 0300   37     330/  5/  5 1016.4R
KEWAUNEE LKSHORE 0248   37      CALM  /  1 1015.7R
NORTHPORT PIER   0240   36        CALM     1016.3R
CHAMBERS ISLAND  0240   34        CALM     1015.9R
MENOMINEE LKSHOR 0248   35     220/  1/  1 1015.6R
$$




USA.gov is the U.S. government's official web portal to all federal, state and local government web resources and services.